Flag for Czech Republic Weather past 2 weeks in Plzen, Czech Republic

Now
35 °F

Light rain. Overcast.


Feels Like: 27 °F
Forecast: 31 / 43 °F
Wind: 10 mph from West

Location: Kocelovice

Current Time: Apr 2, 2015 at 9:14:11 AM

Latest Report: Apr 2, 2015 at 8:00 AM


Visibility: 6 mi

Pressure: 29.84 "Hg

Humidity: 80%

Dew point: 29 °F

Location of PlzenLocation

Historic Weather in Plzen — Graph

°F

Plzen temperature yesterday

Maximum temperature yesterday: 40 °F (at 2:00 PM)
Minimum temperature yesterday: 33 °F (at 6:00 AM)
Average temperature yesterday: 36 °F

Past Weeks' High & Low Weather Summary

 TemperatureHumidityPressure
High58 °F (Mar 25, 1:00 PM)98% (Mar 31, 7:00 AM)30.35 "Hg (Mar 31, 7:00 AM)
Low26 °F (Mar 20, 7:00 AM)22% (Mar 20, 3:00 PM)29.29 "Hg (Mar 31, 11:00 AM)
Average41 °F72%29.95 "Hg
* Reported Mar 18 7:00 AM — Apr 2 8:00 AM, Plzen, Weather by CustomWeather, © 2015

Note: Actual official high and low records may vary slightly from our data, if they occured in-between our weather recording intervals... More about our weather records

Advertising

Plzen weather history for previous 24 hours

 ConditionsComfort  
Time TempWeatherWind HumidityBarometerVisibility
8:00 AM
Thu, Apr 2
35 °FLight rain. Overcast.10 mph80%29.84 "Hg6 mi
7:00 AM35 °FSnow flurries. Cloudy.12 mph80%29.87 "Hg12 mi
6:00 AM34 °FChilly.12 mph84%29.90 "Hg12 mi
5:00 AM34 °FChilly.12 mph81%29.93 "Hg12 mi
4:00 AM32 °FSnow flurries. Overcast.7 mph96%29.99 "Hg2 mi
3:00 AM31 °FLight snow. Overcast.6 mph91%30.03 "Hg12 mi
2:00 AM31 °FSnow flurries. Overcast.9 mph90%30.06 "Hg1 mi
1:00 AM32 °FSnow flurries. Overcast.13 mph86%30.05 "Hg3 mi
12:00 AM33 °FChilly.10 mph78%30.03 "Hg12 mi
11:00 PM
Wed, Apr 1
34 °FSnow flurries. Overcast.12 mph79%30.02 "Hg12 mi
10:00 PM34 °FOvercast.12 mph74%30.00 "Hg16 mi
9:00 PM33 °FSnow. Overcast.13 mph85%30.00 "Hg2 mi
8:00 PM36 °FLight rain. Overcast.9 mph76%29.98 "Hg12 mi
7:00 PM36 °FPartly sunny.12 mph76%29.97 "Hg9 mi
6:00 PM40 °FPartly sunny.13 mph61%29.93 "Hg6 mi
5:00 PM39 °FPartly sunny.10 mph69%29.93 "Hg16 mi
4:00 PM39 °FPartly sunny.10 mph61%29.92 "Hg12 mi
3:00 PM39 °FOvercast.12 mph64%29.92 "Hg19 mi
2:00 PM40 °FOvercast.12 mph59%29.90 "Hg22 mi
1:00 PM40 °FPartly sunny.15 mph56%29.89 "Hg12 mi
12:00 PM37 °FOvercast.12 mph69%29.90 "Hg19 mi
11:00 AM36 °FOvercast.12 mph69%29.89 "Hg17 mi
10:00 AM35 °FPartly sunny.13 mph73%29.88 "Hg22 mi
9:00 AM34 °FPartly sunny.12 mph76%29.85 "Hg22 mi
Weather by CustomWeather, © 2015

See weather overviewHow to use our weather pages